DW2906 San Cristobal Laguna ES current weather conditions

sailwx.info

Wind from 035

Air temperature 18.3° C
Dewpoint 13.8° C

Last reported at 2020-Oct-26 09:02 UTC.
Time now 2020-Oct-26 09:43 UTC

Location: N 28°29' W 016°19'.
View on Google Maps.

See reports from other nearby stations

  
Tides and Currents Weather Stations Pressure Air Temp Water Temp Dewpoint Dewpoint Depression Visibility Wind Speed Wind Dir Waves Ship Positions
date/time (UTC)wind fromknots sea level pressurealtimeterstation pressurevisibilityair tempwater tempwave heightnotes
2020-Oct-26 09:02 035 18.3
2020-Oct-26 08:51 040 18.3
2020-Oct-26 08:41 032 17.8
2020-Oct-26 08:31 033 17.2
2020-Oct-26 08:21 043 17.2
2020-Oct-26 08:11 032 16.7
2020-Oct-26 08:01 037 16.7
2020-Oct-26 07:52 039 16.7
2020-Oct-26 07:41 360 16.7
2020-Oct-26 07:31 360 16.7
2020-Oct-26 07:21 030 16.7
2020-Oct-26 07:11 360 16.7
2020-Oct-26 07:01 360 16.1
2020-Oct-26 06:51 360 16.1
2020-Oct-26 06:41 019 16.1
2020-Oct-26 06:31 020 16.1
2020-Oct-26 06:21 026 16.1
2020-Oct-26 06:11 020 16.1
2020-Oct-26 06:01 022 16.1
2020-Oct-26 05:51 019 16.1
2020-Oct-26 05:42 017 16.1
2020-Oct-26 05:31 017 16.1
2020-Oct-26 05:21 017 16.1
2020-Oct-26 05:11 011 16.1
2020-Oct-26 05:01 011 16.1
2020-Oct-26 04:51 011 16.1
2020-Oct-26 04:41 020 16.1
2020-Oct-26 04:31 360 16.1
2020-Oct-26 04:21 028 16.1
2020-Oct-26 04:11 360 16.1
2020-Oct-26 04:01 360 16.1
2020-Oct-26 03:51 013 16.1
2020-Oct-26 00:01
2020-Oct-25 22:01 360
2020-Oct-25 20:01
2020-Oct-25 19:01
2020-Oct-25 18:01
2020-Oct-25 17:03
2020-Oct-25 16:02 024 21.1
2020-Oct-25 15:11
2020-Oct-25 15:01 21.1
2020-Oct-25 14:21 349 21.7
2020-Oct-25 14:11 005 21.1
2020-Oct-25 14:01 035 21.1
2020-Oct-25 13:41 360 21.1
2020-Oct-25 13:31 058 21.1
2020-Oct-25 13:21 058 20.6
2020-Oct-25 13:11
2020-Oct-25 13:01
2020-Oct-25 12:51
2020-Oct-25 12:41
2020-Oct-25 12:31
2020-Oct-25 12:21
2020-Oct-25 12:11
2020-Oct-25 12:02
2020-Oct-25 11:52
2020-Oct-25 11:41
2020-Oct-25 11:31
2020-Oct-25 11:21
2020-Oct-25 11:11
2020-Oct-25 11:01
2020-Oct-25 10:52
2020-Oct-25 10:41
2020-Oct-25 10:31
2020-Oct-25 10:21
2020-Oct-25 10:11 20.0
2020-Oct-25 10:01 19.4
2020-Oct-25 09:52 19.4
2020-Oct-25 09:41 19.4
2020-Oct-25 09:31 18.9
2020-Oct-25 09:21 18.9
2020-Oct-25 09:11 18.3
2020-Oct-25 09:01 17.8
2020-Oct-25 08:52 17.2
2020-Oct-25 08:41 17.2
2020-Oct-25 08:31 16.7
2020-Oct-25 08:21 16.7
2020-Oct-25 08:11 360 16.1
2020-Oct-25 08:01 360 16.1
2020-Oct-25 07:51 360 15.6
2020-Oct-25 07:41 360 15.6
2020-Oct-25 07:32 360 15.6
2020-Oct-25 07:21 360 15.6
2020-Oct-25 07:11 360 15.6
2020-Oct-25 07:01 360 15.6
2020-Oct-25 06:51 360 15.6
2020-Oct-25 06:41 360 15.6
2020-Oct-25 06:31 360 15.6
2020-Oct-25 06:21 360 15.6
2020-Oct-25 06:11 360 15.6
2020-Oct-25 06:01 360 15.6
2020-Oct-25 05:51 360 15.6
2020-Oct-25 05:41 360 15.6
2020-Oct-25 05:31 360 15.6
2020-Oct-25 05:21 360 15.6
2020-Oct-25 05:11 360 15.6
2020-Oct-25 05:01 360 15.6
2020-Oct-25 04:51 360 15.6
2020-Oct-25 04:41 360 15.0
2020-Oct-25 04:31 360 15.0
2020-Oct-25 04:22 360 15.0
2020-Oct-25 04:12 360 15.0
2020-Oct-25 04:01 360 15.0
2020-Oct-25 03:51 360 15.0
2020-Oct-25 03:41 360 15.0
2020-Oct-25 03:31 360 15.0
2020-Oct-25 03:21 360 15.0
2020-Oct-25 03:11 360 15.0
2020-Oct-25 03:01 360 15.6
2020-Oct-25 02:51 360 15.6
2020-Oct-25 02:42 360 15.6
2020-Oct-25 02:32 360 15.6
2020-Oct-25 02:21 360 15.6
2020-Oct-25 02:11 360 15.6
2020-Oct-25 02:01 360 15.6
2020-Oct-25 01:51 360 15.6
2020-Oct-25 01:41 360 15.6
2020-Oct-25 01:31 360 15.6
2020-Oct-25 01:21 360 15.6
2020-Oct-25 01:11 360 15.6
2020-Oct-25 01:01 360 15.6
2020-Oct-25 00:51 360 15.6
2020-Oct-25 00:41 360 15.6
2020-Oct-25 00:31 360 16.1
2020-Oct-25 00:22 360 16.1
2020-Oct-25 00:11 360 16.1
2020-Oct-25 00:01 360 16.1
2020-Oct-24 23:51 360 16.1
2020-Oct-24 23:41 360 16.1
2020-Oct-24 23:32 360 16.1
2020-Oct-24 23:21 360 16.1
2020-Oct-24 23:11 360 16.7
2020-Oct-24 23:01 360 16.7
2020-Oct-24 22:51 360 16.7
2020-Oct-24 22:41 360 16.7
2020-Oct-24 22:31 360 16.7
2020-Oct-24 22:21 360 16.7
2020-Oct-24 22:11 360 16.7
2020-Oct-24 22:01 360 16.7
2020-Oct-24 21:51 360 16.7
2020-Oct-24 21:41 360 17.2
2020-Oct-24 21:31 360 17.2
2020-Oct-24 21:21 360 17.2
2020-Oct-24 21:11 360 17.2
2020-Oct-24 21:01 360 17.2
2020-Oct-24 20:51 360 17.2
2020-Oct-24 20:41 360 17.2
2020-Oct-24 20:31 360 17.8
2020-Oct-24 20:21 070 17.8
2020-Oct-24 20:11 071 17.8
2020-Oct-24 20:01 071 17.8
2020-Oct-24 19:51 071 17.8
2020-Oct-24 19:41 071 17.8
2020-Oct-24 19:31 071 17.8
2020-Oct-24 19:21 360 17.8
2020-Oct-24 19:11 360 17.8
2020-Oct-24 19:01 360 17.8
2020-Oct-24 18:51 360 17.8
2020-Oct-24 18:41 360 18.3
2020-Oct-24 18:31 360 18.3
2020-Oct-24 18:21 071 18.3
2020-Oct-24 18:11 360 18.3
2020-Oct-24 18:01 360 18.3
2020-Oct-24 17:51 064 18.9
2020-Oct-24 17:41 082 18.9
2020-Oct-24 17:31 098 18.9
2020-Oct-24 17:21 140 18.9
2020-Oct-24 17:11 176 18.9
2020-Oct-24 17:01 146 19.4
2020-Oct-24 16:51 144 19.4
2020-Oct-24 16:41 148 19.4
2020-Oct-24 16:31 146 19.4
2020-Oct-24 16:21 146 19.4
2020-Oct-24 16:11 155 18.9
2020-Oct-24 16:01 153 19.4
2020-Oct-24 15:51 141 20.0
2020-Oct-24 15:41 155 20.0
2020-Oct-24 15:31 155 19.4
2020-Oct-24 15:21 119 20.0
2020-Oct-24 15:12 117 19.4
2020-Oct-24 15:01 146 19.4
2020-Oct-24 14:51 144 19.4
2020-Oct-24 14:41 173 19.4
2020-Oct-24 14:31 138 20.0
2020-Oct-24 14:21 099 20.0
2020-Oct-24 14:11 150 20.0
2020-Oct-24 14:01 171 19.4
2020-Oct-24 13:51 140 20.0
2020-Oct-24 13:41 150 19.4
2020-Oct-24 13:31 130 19.4
2020-Oct-24 13:21 145 20.0
2020-Oct-24 13:11 146 20.0
2020-Oct-24 13:01 161 20.0
2020-Oct-24 12:51 110 20.0
2020-Oct-24 12:41 137 20.0
2020-Oct-24 12:31 160 20.6
2020-Oct-24 12:21 140 20.6
2020-Oct-24 12:11 139 20.0
2020-Oct-24 12:01 160 20.0
2020-Oct-24 11:51 150 20.0
2020-Oct-24 11:41 151 20.0
2020-Oct-24 11:31 137 20.0
2020-Oct-24 11:21 117 19.4
2020-Oct-24 11:11 116 19.4
2020-Oct-24 11:01 127 19.4
2020-Oct-24 10:51 127 19.4
2020-Oct-24 10:41 131 18.9
2020-Oct-24 10:31 117 18.9
2020-Oct-24 10:21 153 18.9
2020-Oct-24 10:11 150 18.3
2020-Oct-24 10:01 092 17.8
2020-Oct-24 09:51 360 17.8
2020-Oct-24 09:41 084 17.8
2020-Oct-24 09:31 082 17.8
2020-Oct-24 09:21 360 18.3
2020-Oct-24 09:11 360 18.3
2020-Oct-24 09:01 360 18.3